Wind_Speed
26 25 25 25 24 24 24 25 25 24 24 23 22 21 20 20 19 20 20 20 20 21 21 21 22 23 23 23 23 24 25 28 28 23 23 24 25 26 25 25 25 24 22
27 26 26 26 25 25 24 25 25 24 24 22 21 20 19 19 19 19 19 19 19 20 20 21 22 22 22 23 24 25 25 27 29 28 25 25 26 28 29 28 28 28 26
28 28 27 26 25 25 25 25 25 25 23 21 19 18 18 18 18 18 18 18 18 19 20 20 21 22 22 22 24 24 25 26 28 29 28 27 26 27 29 31 31 30 30
28 27 26 27 26 26 26 26 26 24 22 20 19 19 19 19 19 19 18 18 20 22 23 25 26 26 25 26 26 26 26 27 28 28 28 29 29 28 30 31 31 32 31
28 28 28 27 27 27 27 26 25 23 21 20 20 19 19 20 20 19 20 22 24 26 27 27 27 27 27 27 26 28 29 29 30 31 30 30 30 31 32 31 31 32 30
29 29 28 28 28 28 27 26 25 22 21 20 20 20 21 20 20 21 23 25 25 25 26 27 27 27 27 27 28 28 29 29 29 30 29 31 30 32 34 33 33 32 32
31 31 30 30 30 29 28 26 24 22 21 21 21 22 21 21 22 24 25 26 26 26 25 25 26 27 27 27 28 28 29 31 32 31 30 30 30 32 34 34 33 32 33
32 32 31 30 29 28 26 24 23 22 22 22 22 23 23 24 25 26 26 26 26 26 25 25 25 25 26 27 27 28 29 31 33 33 34 32 33 32 35 36 34 34 31
33 32 31 30 28 27 24 24 23 23 23 23 23 23 25 26 27 26 26 26 26 27 27 27 27 27 28 29 29 29 28 30 34 34 35 35 34 33 35 35 35 37 34
31 30 29 28 27 25 24 24 24 24 24 24 24 26 26 27 27 27 27 26 26 26 28 29 30 30 31 33 34 35 35 34 34 34 34 35 36 36 36 36 35 36 37
30 30 28 27 25 25 25 25 24 24 24 25 26 27 28 27 28 28 27 27 26 26 27 28 30 32 34 35 37 39 39 39 38 38 38 37 37 38 37 36 37 38 37
30 29 27 26 26 26 26 25 25 24 26 28 27 26 27 27 27 26 25 25 26 26 28 29 30 33 35 37 39 41 42 43 43 42 41 40 40 40 40 40 39 39 39
29 27 27 27 27 26 25 25 28 31 27 25 23 23 23 24 24 23 23 25 28 30 32 33 34 36 37 38 39 40 42 44 45 46 45 44 43 43 43 43 42 42 41
29 28 29 29 28 27 31 35 32 28 24 21 22 21 19 18 21 23 25 28 30 32 36 37 39 40 41 42 42 42 43 43 44 44 45 45 45 44 43 41 43 43 44
31 31 31 31 34 36 35 32 27 22 19 21 21 19 18 18 22 26 29 31 33 36 40 41 43 45 45 45 43 42 42 41 42 42 43 43 42 42 42 41 41 42 43
35 37 37 38 36 33 30 27 20 18 20 21 19 19 20 23 27 30 33 36 39 42 46 47 49 49 49 48 47 46 43 42 41 41 41 40 39 39 39 39 38 39 40
44 39 39 35 30 29 26 17 17 20 21 20 20 21 25 29 33 36 38 41 44 47 49 51 52 52 51 50 48 47 45 43 41 39 39 38 39 38 37 35 34 35 36
41 38 33 28 29 22 16 18 21 21 21 21 22 26 29 34 37 40 43 46 49 50 51 52 51 49 47 46 46 45 43 40 39 37 37 37 37 37 37 35 34 33 32
33 27 28 26 16 15 18 21 22 22 22 22 25 29 34 37 40 44 47 49 51 51 49 48 45 43 44 44 43 42 40 39 38 38 36 36 35 36 36 35 34 33 32
28 29 26 15 15 18 21 24 24 25 25 28 31 34 37 41 44 45 47 47 46 45 44 44 43 42 41 40 40 41 42 41 40 38 36 35 34 35 35 34 34 34 31
25 20 15 16 18 22 24 26 27 28 30 32 35 39 43 46 48 48 45 43 42 42 42 43 41 40 40 38 36 38 39 38 36 35 34 33 33 34 34 34 33 32 30
17 13 17 20 23 25 27 29 30 32 34 37 40 44 46 47 45 43 41 42 43 42 42 40 39 38 35 36 37 38 38 36 34 33 32 32 33 34 35 35 34 31 29
15 16 20 23 27 29 30 32 34 36 39 41 44 46 45 42 40 40 41 41 40 38 37 37 36 34 35 35 35 37 37 35 33 33 33 34 35 36 36 35 32 30 29
19 23 26 28 29 31 33 35 37 39 42 44 44 41 38 39 41 41 40 37 35 34 33 33 34 35 36 35 35 36 36 34 34 34 35 36 36 35 34 33 32 31 30
26 28 29 31 32 34 36 38 40 42 41 39 36 36 37 40 40 37 35 32 31 31 33 35 36 38 38 37 36 35 34 33 33 32 32 32 32 31 29 29 29 29 29
29 30 32 34 35 37 39 40 39 38 35 34 35 34 37 38 35 32 30 28 30 33 35 36 36 36 38 38 35 31 30 30 28 26 26 27 27 25 24 23 24 25 26
Wind_Direction
251 251 253 257 263 270 274 278 286 289 290 290 290 291 293 296 297 298 299 301 302 303 303 302 301 302 301 297 295 293 292 292 292 292 291 289 289 289 289 289 288 287 288
248 250 254 258 264 269 275 283 286 288 288 287 288 291 294 296 301 302 302 304 308 310 310 309 307 307 303 299 298 297 295 291 290 289 287 285 286 287 287 286 285 287 287
247 249 253 260 266 271 277 283 287 288 286 285 286 290 293 298 299 301 303 308 310 311 311 311 310 309 306 304 302 297 293 291 292 293 292 289 286 283 282 284 284 283 283
246 251 257 262 266 271 278 284 285 284 282 283 285 289 294 298 299 300 303 307 308 308 307 306 304 302 300 300 299 297 296 295 292 290 290 291 290 287 284 281 280 282 283
248 252 259 264 269 275 281 285 283 279 277 279 284 289 293 293 296 300 303 304 305 305 304 304 303 302 300 300 299 298 298 297 296 296 295 293 291 289 286 284 282 282 281
249 257 263 268 271 276 279 279 275 272 273 278 283 288 290 292 296 300 303 304 305 304 304 303 302 301 301 301 300 299 298 297 296 296 296 295 292 290 288 289 286 283 280
254 260 265 267 271 275 276 273 269 270 274 279 284 288 289 291 296 301 303 303 301 299 297 296 296 297 297 298 299 299 300 299 297 296 297 295 294 291 290 288 288 287 284
257 261 263 265 268 269 268 266 267 271 277 282 285 288 290 294 299 301 300 300 300 301 300 299 297 296 296 295 295 296 297 298 297 298 298 298 296 294 292 291 290 287 286
259 260 261 263 264 265 262 264 269 274 279 283 285 289 293 296 296 297 299 301 302 301 301 301 301 300 299 299 299 298 297 295 296 297 297 296 294 292 290 290 292 291 290
258 259 258 259 260 260 262 266 271 276 279 282 286 289 291 292 295 296 297 298 299 300 300 301 302 304 303 302 300 298 296 293 291 290 292 293 293 291 289 288 287 287 289
256 256 256 256 257 260 264 268 272 274 278 282 286 288 290 294 296 297 299 300 301 302 302 302 303 303 302 301 299 297 295 293 290 287 287 286 286 288 288 286 286 285 284
256 252 251 253 257 261 264 267 270 273 276 279 284 289 293 295 297 299 302 304 307 308 307 308 306 303 301 299 297 296 294 292 291 290 287 284 281 281 282 282 282 281 280
252 248 249 253 257 259 261 263 265 270 274 279 285 288 290 294 296 301 307 310 312 313 312 311 310 307 304 303 301 298 296 294 292 290 289 288 286 283 280 280 279 279 276
246 247 250 252 253 254 259 267 267 267 273 283 285 285 286 291 297 304 309 311 313 314 313 314 313 310 308 306 304 302 300 299 296 293 290 288 287 286 284 281 280 278 276
245 246 247 247 253 262 266 266 264 268 278 279 278 280 285 295 301 308 310 310 310 311 310 311 310 308 306 303 300 299 298 297 296 295 294 293 290 287 285 284 281 280 277
244 243 249 257 263 266 265 259 264 272 273 270 272 281 292 301 304 307 309 310 311 311 310 310 308 306 304 302 300 299 297 295 293 292 292 291 291 289 287 285 284 282 279
247 254 261 264 265 259 255 257 263 265 264 269 278 289 300 304 307 308 309 308 309 308 307 306 305 304 303 301 299 298 298 297 295 292 289 288 287 286 287 287 286 283 280
258 261 263 260 256 249 253 256 258 257 263 275 286 296 301 303 306 308 308 306 306 304 304 303 302 301 300 298 296 295 294 293 294 294 289 285 285 286 286 288 289 286 282
263 258 256 245 239 247 254 258 259 264 270 277 287 295 299 302 304 305 304 303 303 302 302 301 300 300 299 298 296 293 291 292 292 291 291 287 283 282 283 286 288 288 285
255 255 240 235 242 250 256 262 268 273 278 285 292 297 298 300 302 302 301 300 299 298 297 296 298 299 299 298 297 296 294 293 292 291 289 287 285 283 283 284 287 289 285
251 232 231 238 247 256 262 269 274 278 283 290 295 298 299 300 301 300 299 297 296 296 295 296 297 298 299 299 299 300 299 296 292 289 287 286 285 284 283 284 284 285 283
236 236 244 250 257 265 270 273 278 283 289 293 295 297 297 298 299 298 297 297 298 297 297 296 296 298 298 300 300 301 302 299 296 292 290 290 288 287 285 284 283 281 277
238 245 253 258 264 270 275 279 283 287 290 292 294 296 297 297 297 298 298 299 298 296 295 295 297 299 301 301 300 300 301 299 297 294 293 291 289 287 285 282 278 274 272
265 263 264 267 272 276 279 282 286 289 291 293 295 296 297 299 300 301 299 297 295 295 296 298 299 300 301 301 300 299 299 298 296 295 295 293 291 289 284 279 275 272 271
266 268 270 273 276 279 282 285 288 290 291 293 294 296 299 301 300 299 298 297 297 298 299 300 300 299 299 298 298 297 296 296 297 298 297 296 294 292 287 280 275 271 269
273 274 276 277 280 282 284 286 288 290 291 291 292 293 300 302 300 299 297 298 301 303 304 302 301 301 299 297 294 290 293 296 297 297 297 298 300 299 293 285 276 269 267
Height
3116 3116 3117 3118 3119 3119 3118 3117 3116 3115 3113 3112 3110 3109 3107 3105 3103 3102 3100 3098 3096 3094 3092 3091 3088 3087 3086 3083 3081 3080 3078 3076 3075 3077 3076 3074 3072 3071 3070 3068 3067 3066 3065
3109 3110 3111 3111 3112 3112 3112 3111 3110 3108 3107 3106 3104 3103 3102 3100 3099 3097 3095 3093 3091 3090 3088 3086 3083 3082 3080 3078 3076 3074 3072 3069 3067 3067 3068 3067 3065 3063 3062 3062 3060 3059 3059
3101 3102 3104 3105 3105 3105 3104 3104 3103 3102 3101 3100 3098 3097 3097 3095 3093 3092 3091 3088 3087 3085 3084 3082 3079 3077 3075 3072 3070 3068 3065 3064 3061 3059 3059 3058 3058 3056 3054 3052 3052 3052 3051
3094 3096 3097 3097 3098 3098 3097 3097 3096 3095 3094 3094 3093 3092 3091 3090 3089 3088 3086 3084 3082 3080 3078 3076 3074 3072 3069 3067 3064 3061 3059 3058 3055 3052 3051 3050 3049 3048 3046 3045 3045 3042 3042
3088 3089 3090 3090 3091 3091 3091 3090 3090 3089 3088 3087 3087 3086 3085 3084 3083 3081 3079 3078 3077 3074 3072 3069 3067 3065 3063 3060 3058 3055 3053 3050 3047 3046 3045 3043 3041 3038 3035 3036 3036 3034 3034
3081 3082 3083 3084 3085 3084 3083 3083 3083 3082 3081 3081 3080 3079 3078 3077 3075 3074 3073 3071 3069 3068 3065 3062 3060 3057 3055 3053 3050 3048 3045 3043 3041 3038 3037 3036 3034 3030 3027 3026 3025 3025 3025
3073 3074 3075 3076 3076 3077 3076 3076 3075 3075 3074 3073 3073 3072 3071 3069 3068 3067 3065 3063 3062 3060 3058 3056 3053 3051 3048 3046 3043 3041 3038 3035 3032 3030 3029 3027 3026 3023 3020 3018 3016 3014 3014
3066 3066 3067 3068 3068 3068 3068 3068 3067 3067 3067 3066 3066 3064 3063 3062 3061 3060 3058 3056 3054 3052 3050 3048 3046 3043 3041 3038 3037 3034 3032 3028 3025 3022 3020 3019 3015 3014 3011 3008 3008 3005 3005
3057 3058 3059 3059 3060 3060 3061 3060 3060 3060 3059 3059 3058 3057 3056 3055 3054 3052 3050 3048 3046 3043 3041 3039 3037 3036 3033 3030 3028 3026 3025 3021 3017 3015 3012 3009 3007 3005 3001 3000 2999 2996 2996
3048 3050 3051 3051 3052 3053 3053 3053 3053 3053 3052 3051 3050 3049 3048 3047 3045 3043 3042 3040 3039 3037 3034 3031 3028 3026 3023 3021 3018 3016 3014 3013 3010 3007 3004 3001 2996 2995 2992 2989 2988 2986 2985
3040 3041 3042 3044 3044 3045 3046 3046 3045 3045 3044 3043 3042 3041 3040 3038 3036 3035 3033 3032 3031 3029 3027 3025 3021 3018 3014 3012 3008 3005 3003 3001 3000 2996 2994 2992 2988 2984 2982 2980 2977 2975 2974
3032 3033 3034 3036 3037 3037 3037 3037 3037 3037 3036 3035 3034 3033 3031 3030 3028 3027 3025 3023 3021 3019 3017 3015 3013 3010 3006 3003 2999 2995 2991 2987 2984 2983 2982 2980 2978 2975 2971 2968 2966 2964 2963
3024 3025 3026 3027 3028 3028 3028 3028 3028 3027 3026 3026 3026 3025 3023 3021 3020 3019 3018 3016 3013 3010 3007 3005 3002 2999 2996 2992 2988 2984 2981 2977 2972 2969 2967 2965 2963 2961 2959 2957 2955 2952 2951
3016 3018 3018 3018 3018 3019 3018 3018 3017 3017 3018 3018 3018 3017 3017 3016 3013 3012 3010 3008 3005 3002 2998 2996 2992 2988 2984 2980 2976 2973 2968 2964 2960 2957 2954 2951 2949 2947 2945 2943 2942 2940 2938
3007 3008 3008 3008 3008 3008 3008 3008 3008 3008 3009 3010 3010 3009 3009 3009 3007 3005 3003 3000 2997 2994 2988 2986 2983 2978 2974 2969 2966 2962 2958 2954 2949 2945 2941 2938 2936 2934 2932 2930 2928 2927 2924
2997 2997 2997 2998 2998 2998 2998 2999 3000 3001 3002 3003 3002 3002 3000 2998 2997 2995 2993 2991 2987 2982 2977 2972 2969 2965 2961 2956 2952 2949 2946 2942 2939 2934 2930 2926 2924 2921 2920 2918 2915 2914 2911
2985 2988 2988 2988 2988 2989 2989 2990 2993 2994 2995 2995 2994 2992 2991 2990 2986 2983 2980 2978 2975 2970 2965 2961 2955 2951 2947 2942 2938 2934 2931 2929 2925 2922 2918 2916 2914 2910 2909 2906 2904 2902 2900
2977 2977 2977 2978 2978 2979 2981 2984 2986 2987 2987 2987 2985 2984 2981 2978 2975 2973 2969 2964 2963 2957 2952 2948 2944 2939 2934 2929 2926 2922 2919 2917 2913 2909 2906 2904 2902 2899 2897 2895 2893 2890 2888
2966 2966 2967 2968 2969 2973 2977 2978 2978 2979 2978 2978 2977 2977 2972 2968 2966 2962 2958 2953 2949 2945 2939 2934 2930 2927 2922 2917 2913 2910 2907 2904 2901 2898 2895 2892 2891 2887 2885 2884 2881 2879 2877
2956 2957 2957 2959 2964 2967 2969 2972 2971 2969 2968 2968 2966 2965 2962 2959 2955 2951 2946 2941 2936 2932 2928 2922 2919 2915 2910 2906 2902 2898 2895 2892 2889 2886 2883 2881 2879 2877 2874 2872 2870 2868 2867
2947 2947 2950 2955 2958 2960 2960 2961 2963 2960 2958 2957 2955 2951 2948 2944 2941 2936 2932 2928 2924 2920 2915 2911 2908 2903 2899 2895 2890 2886 2882 2879 2876 2873 2871 2869 2867 2865 2864 2861 2859 2858 2856
2939 2942 2946 2949 2951 2952 2952 2951 2951 2949 2947 2945 2942 2940 2934 2930 2926 2922 2919 2915 2911 2906 2902 2898 2895 2891 2887 2884 2879 2875 2871 2867 2865 2862 2860 2858 2856 2854 2852 2850 2848 2847 2847
2935 2937 2939 2941 2942 2942 2942 2941 2939 2937 2935 2932 2929 2926 2922 2918 2914 2910 2906 2902 2898 2894 2890 2887 2883 2880 2876 2873 2868 2864 2860 2857 2854 2852 2849 2846 2844 2842 2839 2838 2836 2836 2836
2930 2931 2931 2932 2932 2931 2930 2929 2927 2925 2921 2918 2915 2912 2909 2905 2901 2898 2894 2890 2886 2883 2879 2876 2873 2869 2865 2862 2858 2854 2850 2847 2844 2841 2838 2834 2831 2829 2826 2825 2824 2825 2825
2922 2922 2921 2921 2921 2920 2918 2917 2914 2911 2908 2905 2902 2900 2897 2894 2890 2886 2882 2879 2875 2872 2869 2866 2862 2858 2854 2851 2848 2844 2841 2837 2834 2831 2827 2823 2820 2817 2815 2813 2813 2814 2815
2912 2911 2910 2909 2908 2907 2906 2903 2900 2898 2896 2894 2891 2889 2886 2882 2878 2875 2872 2869 2866 2862 2858 2855 2851 2846 2842 2839 2836 2833 2831 2828 2825 2822 2818 2814 2811 2808 2806 2804 2804 2804 2805